Location: Champaign/Urbana Astronomical Society Observatory
(40.0333°N, 88.2833°W)
Time: 09:28:46
(UTC-05:00)

KKS-1 - Visible Passes

Search period start: 21 May 2019 00:00
Search period end: 31 May 2019 00:00
Orbit: 638 x 649 km, 98.4° (Epoch: 20 May)

Date Brightness Start Highest point End Pass type
(mag) Time Alt. Az. Time Alt. Az. Time Alt. Az.
21 May ? 21:19:28 10° NNW 21:21:48 14° WNW 21:24:07 10° W visible
24 May ? 20:55:40 10° NNW 20:59:14 23° WNW 21:02:46 10° WSW visible
25 May ? 21:21:18 10° NNW 21:23:32 14° WNW 21:25:46 10° W visible
28 May ? 20:57:26 10° NNW 21:00:57 23° WNW 21:04:28 10° WSW visible
29 May ? 21:23:06 10° NNW 21:25:16 13° WNW 21:27:24 10° W visible
